Volver al catálogo

STARLINK-35699

ActivoComunicacionesVLEO
NORAD 66557·PAYLOAD·🇺🇸 United States

Lanzado Nov 21, 2025 desde Cape Canaveral Space Force Station

Loading…

Próximos Pases (próximas 24 horas)

TLE

ActualizadoSource: CelesTrak SupGP

Época: Sep 15, 2026, 03:27 UTC

1 66557C 25268A   26258.14423611  .00039353  00000+0  14250-2 0  2581
2 66557  43.0018 357.5520 0001443 267.9513 300.9583 15.27567555    16

Sigue STARLINK-35699 en tiempo real con AllMySat

Download on the App Store